This is the latest recevied weather packets stored in our database for station/object KE0PRS. If no packets are shown the sender has not sent any weather packets the latest 1 day(s).
| Time | Temp. | Humidity | Pressure | Rain* | Wind** | Luminosity | Snow |
|---|---|---|---|---|---|---|---|
| 1778025267 | 10° C | 58% | 1014.3 hPa | 0 mm | 0.89 m/s, 113° | 28 W/m² | - |
| 1778024964 | 10° C | 57% | 1013.9 hPa | 0 mm | 2.24 m/s, 51° | 34 W/m² | - |
| 1778024661 | 10° C | 57% | 1013.7 hPa | 0 mm | 0.45 m/s, 113° | 40 W/m² | - |
| 1778024358 | 10° C | 56% | 1013.6 hPa | 0 mm | 1.34 m/s, 86° | 51 W/m² | - |
| 1778024056 | 10° C | 55% | 1013.6 hPa | 0 mm | 1.34 m/s, 48° | 57 W/m² | - |
| 1778023753 | 10.56° C | 55% | 1013.5 hPa | 0 mm | 3.13 m/s, 40° | 52 W/m² | - |
| 1778023451 | 10.56° C | 55% | 1013.5 hPa | 0 mm | 1.79 m/s, 101° | 38 W/m² | - |
| 1778023147 | 10.56° C | 56% | 1013.5 hPa | 0 mm | 2.24 m/s, 82° | 49 W/m² | - |
| 1778022845 | 10.56° C | 56% | 1013.3 hPa | 0 mm | 3.13 m/s, 31° | 70 W/m² | - |
| 1778022543 | 10.56° C | 56% | 1013.3 hPa | 0 mm | 4.02 m/s, 29° | 78 W/m² | - |
| 1778022240 | 10.56° C | 55% | 1013.1 hPa | 0 mm | 3.13 m/s, 75° | 104 W/m² | - |
| 1778021936 | 11.11° C | 55% | 1013.1 hPa | 0 mm | 1.79 m/s, 78° | 101 W/m² | - |
| 1778021634 | 11.11° C | 54% | 1013.1 hPa | 0 mm | 2.24 m/s, 21° | 80 W/m² | - |
| 1778021329 | 11.11° C | 53% | 1012.8 hPa | 0 mm | 1.34 m/s, 92° | 107 W/m² | - |
| 1778021027 | 11.11° C | 54% | 1012.7 hPa | 0 mm | 1.34 m/s, 21° | 99 W/m² | - |
| 1778020723 | 11.67° C | 53% | 1013 hPa | 0 mm | 0.89 m/s, 352° | 97 W/m² | - |
| 1778020420 | 11.67° C | 53% | 1012.8 hPa | 0 mm | 0.45 m/s, 145° | 169 W/m² | - |
| 1778020116 | 11.67° C | 52% | 1013 hPa | 0 mm | 0 m/s | 120 W/m² | - |
| 1778019812 | 11.67° C | 51% | 1013.3 hPa | 0 mm | 0 m/s | 120 W/m² | - |
| 1778019510 | 11.11° C | 51% | 1013 hPa | 0 mm | 0.45 m/s, 89° | 144 W/m² | - |
| 1778019206 | 11.11° C | 50% | 1013.1 hPa | 0 mm | 1.79 m/s, 25° | 133 W/m² | - |
| 1778018903 | 11.11° C | 51% | 1013.1 hPa | 0 mm | 1.79 m/s, 17° | 129 W/m² | - |
| 1778018600 | 11.67° C | 49% | 1012.8 hPa | 0 mm | 2.68 m/s, 49° | 150 W/m² | - |
| 1778018299 | 11.67° C | 50% | 1013 hPa | 0 mm | 0.45 m/s, 147° | 155 W/m² | - |
| 1778017996 | 11.67° C | 48% | 1013.1 hPa | 0 mm | 3.58 m/s, 88° | 210 W/m² | - |
* Rain latest hour (hover to see other rain measurements)
** Current wind speed in m/s (hover to see current wind gust speed)